Regional Weather Roundup
Issued by NWS

Home | Current Version | Previous Version | Text Only | Print | Product List | Glossary Off
Versions: 1 2 3 4 5 6 7 8 9 10 11 12 13 14 15 16 17 18 19 20 21 22 23 24 25 26 27 28 29 30 31 32 33 34 35 36 37 38 39 40 41 42 43 44 45 46 47 48 49 50

000
ASUS44 KMEG 262300
RWRTN
TENNESSEE HOURLY STATE WEATHER ROUNDUP
NATIONAL WEATHER SERVICE MEMPHIS TN
600 PM CDT WED JUL 26 2017

TNZ002-004-019-021-049-052-054-088>092-270000-
WEST TENNESSEE

CITY           SKY/WX    TMP DP  RH WIND       PRES   REMARKS
MEMPHIS INTL   MOSUNNY   92  73  53 SW7       30.02F HX 100
NWS MEMPHIS      N/A     93 N/A N/A MISG        N/A
JACKSON        MOSUNNY   94  75  54 W6        30.01F HX 105
$$

TNZ008-025-027-028-033-062-065-066-270000-
NORTH MIDDLE TENNESSEE

CITY           SKY/WX    TMP DP  RH WIND       PRES   REMARKS
NASHVILLE      CLOUDY    94  71  47 SW5       30.02S HX 101
CLARKSVILLE    CLOUDY    90  73  57 SW6       30.00F HX  98
SMYRNA         SUNNY     92  72  51 SW3       30.02F HX  99
CROSSVILLE     PTSUNNY   86  70  58 VRB6      30.11F HX  90
$$

TNZ061-075-076-078-094-096-097-270000-
SOUTH MIDDLE TENNESSEE

CITY           SKY/WX    TMP DP  RH WIND       PRES   REMARKS
$$

TNZ017-018-042-046-047-270000-
NORTHEAST TENNESSEE

CITY           SKY/WX    TMP DP  RH WIND       PRES   REMARKS
TRI CITIES     MOSUNNY   90  63  40 NW6       30.08F HX  91
$$

TNZ012-013-036-069-073-074-270000-
CENTRAL EAST TENNESSEE

CITY           SKY/WX    TMP DP  RH WIND       PRES   REMARKS
KNOXVILLE      MOSUNNY   92  67  43 VRB3      30.04F HX  95
OAK RIDGE      SUNNY     91  69  48 VRB3      30.06S HX  96
GATLINBURG     MOSUNNY   91  64  40 VRB3      30.04S HX  93
$$

TNZ083-085-099-270000-
SOUTHEAST TENNESSEE

CITY           SKY/WX    TMP DP  RH WIND       PRES   REMARKS
CHATTANOOGA    MOSUNNY   94  68  42 NW3       30.03F HX  98
$$

SKY/WX REPORTED AS FAIR MEANS FEW OR NO CLOUDS BELOW
12 THOUSAND FEET.




USA.gov is the U.S. government's official web portal to all federal, state and local government web resources and services.